#timestamp,LO_Frequency,Hit,StdDev 
1608739635.4,286046985.1,P
1608739655.3,286046986.4,P
1608739675.1,286046983.7,P
1608739676.0,286046983.7,Y
1608739695.8,286046998.4,P
1608739715.7,286047001.2,N
1608739735.5,286046998.3,N
1608739755.3,286046998.3,N
1608739775.2,286046998.6,N
1608739795.0,286047001.1,N
1608739795.9,286047001.1,N
1608739815.8,286046998.6,N
1608739835.6,286046998.9,N
1608739855.4,286046999.4,N
1608739875.3,286046999.0,N
1608739895.1,286046998.2,N
1608739915.8,286046998.4,N
1608739935.7,286047001.2,N
1608739955.5,286047000.8,N
1608739975.4,286047000.3,N
1608739995.2,286046998.6,N
1608740015.0,286046998.1,N
1608740015.9,286046998.1,N
1608740035.8,286047001.1,N
1608740055.6,286046998.2,N
1608740075.4,286047000.1,N
1608740095.3,286047002.1,N
1608740115.1,286047003.7,N
1608740135.9,286047007.6,N
1608740155.7,286047007.5,N
1608740175.5,286047004.4,N
1608740195.4,286047002.8,N
1608740215.2,286047002.7,N
1608740235.0,286047004.3,N
1608740235.9,286047004.3,N
1608740255.8,286047000.2,N
1608740275.6,286047002.6,N
1608740295.5,286047001.6,N
1608740315.3,286047002.0,N
1608740335.1,286047002.1,N
1608740355.9,286046999.8,N
1608740375.7,286047002.3,N
1608740395.5,286047001.5,N
1608740415.4,286046999.7,N
1608740435.2,286047000.3,N
1608740455.1,286046998.6,N
1608740456.0,286046998.6,N
1608740475.8,286046998.1,N
1608740495.6,286047000.7,N
1608740515.5,286047000.2,N
1608740535.3,286046999.9,N
1608740555.1,286047001.9,N
1608740575.9,286047002.3,N
1608740595.7,286047001.5,N
1608740615.6,286046999.9,N
1608740635.4,286047002.5,N
1608740655.2,286047004.2,N
1608740675.1,286047003.8,N
1608740676.0,286047003.8,N
1608740695.8,286046999.7,N
1608740715.7,286046999.8,N
1608740735.5,286046998.1,N
1608740755.3,286046999.6,N
1608740775.2,286046996.9,N
1608740795.0,286046999.4,N
1608740795.9,286046999.4,N
1608740815.8,286046998.3,N
1608740835.6,286046999.8,N
1608740855.4,286046998.1,N
1608740875.3,286047000.0,N
1608740895.1,286047001.2,N
1608740945.9,286047002.6,E
1608740955.8,286047000.4,N
1608740975.6,286047000.7,P
1608740995.5,286047002.1,P
1608741015.3,286047002.8,Y
1608741035.1,286046998.9,P
1608741055.9,286046999.1,N
1608741075.7,286046998.2,N
1608741095.6,286046998.3,N
1608741115.4,286046999.4,N
1608741135.2,286046998.4,N
1608741155.1,286047001.1,N
1608741156.0,286047001.1,N
1608741175.8,286047000.5,N
1608741195.7,286047000.6,N
1608741215.5,286046998.7,N
1608741235.3,286046999.6,N
1608741255.2,286046999.0,N
1608741275.0,286047001.2,N
1608741275.9,286047001.2,N
1608741295.7,286047001.1,N
1608741315.6,286047002.7,N
1608741335.4,286047002.8,N
1608741355.3,286047003.2,N
1608741375.1,286047005.5,Y
1608741395.8,286047005.3,P
1608741415.7,286047005.5,N
1608741435.5,286047002.9,N
1608741455.3,286047006.0,N
1608741475.2,286047001.5,N
1608741495.0,286047002.8,N
1608741495.9,286047002.8,N
1608741515.8,286046999.8,N
1608741535.6,286047004.3,N
1608741555.4,286047001.9,N
1608741575.3,286047003.9,N
1608741595.1,286047002.5,N
1608741615.9,286047002.7,N
1608741635.7,286047002.3,N
1608741655.5,286047000.0,N
1608741675.4,286047002.4,N
1608741695.2,286047001.8,N
1608741715.0,286047003.9,N
1608741715.9,286047003.9,N
1608741735.8,286047003.8,N
1608741755.6,286047003.8,N
1608741775.4,286047004.4,N
1608741795.3,286047003.2,N
1608741815.1,286047003.9,N
1608741835.9,286047003.9,N
1608741855.7,286047003.6,N
1608741875.5,286047005.8,Y
1608741895.4,286047002.7,P
1608741915.2,286046999.7,N
1608741935.0,286047003.6,N
1608741936.0,286047003.6,N
1608741955.8,286047003.2,N
1608741975.6,286047001.3,N
1608741995.5,286046999.8,N
1608742015.3,286047000.0,N
1608742035.1,286047000.2,N
1608742055.9,286047000.9,N
1608742075.7,286047000.2,N
1608742095.6,286047001.9,N
1608742115.4,286047002.4,N
1608742135.2,286047000.3,N
1608742155.1,286047003.5,N
1608742156.0,286047003.5,N
1608742175.8,286047004.2,N
1608742195.6,286047004.2,N
1608742215.5,286047005.7,Y
1608742235.3,286047002.5,P
1608742255.2,286047002.8,P
1608742275.9,286047002.6,P
1608742295.7,286047001.3,Y
1608742315.6,286046998.1,P
1608742335.4,286046999.3,N
1608742355.2,286047001.0,N
1608742375.1,286046999.9,N
1608742376